BTK6864 WIII-WIDD

Flight info

Callsign BTK6864
Flight time 1h 10m
Altitude 36000
Route DOLTA A585 PLB T25 IGUTU
Aircraft A320/M-SDE3FGHIRWY/LB1

Departure

Time 2026-05-05 12:56
Airport Soekarno-Hatta International Airport (WIII)

Arrival

Time 2026-05-05 14:07
Airport Hang Nadim International Airport (WIDD)
Time Latitude Longitude Altitude Speed Heading
2026-05-05 12:19 -6.12288 106.64868 38 ft 0 kts 137°
2026-05-05 12:21 -6.12409 106.64879 38 ft 0 kts 96°
2026-05-05 12:47 -6.12407 106.64869 38 ft 3 kts 94°
2026-05-05 12:47 -6.12407 106.64849 38 ft 3 kts 85°
2026-05-05 12:47 -6.12410 106.64829 37 ft 3 kts 68°
2026-05-05 12:48 -6.12419 106.64814 36 ft 3 kts 21°
2026-05-05 12:48 -6.12428 106.64812 37 ft 0 kts 341°
2026-05-05 12:50 -6.12426 106.64811 37 ft 1 kts 341°
2026-05-05 12:50 -6.12411 106.64806 38 ft 3 kts 340°
2026-05-05 12:51 -6.12391 106.64798 37 ft 5 kts 338°
2026-05-05 12:51 -6.12356 106.64782 38 ft 6 kts 340°
2026-05-05 12:51 -6.12306 106.64774 38 ft 8 kts
2026-05-05 12:51 -6.12243 106.64765 38 ft 10 kts 343°
2026-05-05 12:52 -6.12170 106.64737 36 ft 12 kts 337°
2026-05-05 12:52 -6.12086 106.64703 38 ft 14 kts 338°
2026-05-05 12:52 -6.12002 106.64652 38 ft 15 kts 291°
2026-05-05 12:52 -6.12030 106.64548 37 ft 17 kts 248°
2026-05-05 12:53 -6.12077 106.64431 39 ft 19 kts 248°
2026-05-05 12:53 -6.12129 106.64299 39 ft 21 kts 248°
2026-05-05 12:53 -6.12186 106.64157 39 ft 22 kts 248°
2026-05-05 12:53 -6.12237 106.64028 37 ft 19 kts 248°
2026-05-05 12:54 -6.12214 106.63890 41 ft 12 kts 342°
2026-05-05 12:54 -6.12140 106.63906 41 ft 10 kts 20°
2026-05-05 12:54 -6.12087 106.63921 38 ft 6 kts 46°
2026-05-05 12:55 -6.12069 106.63967 40 ft 8 kts 70°
2026-05-05 12:55 -6.12025 106.64079 38 ft 42 kts 69°
2026-05-05 12:55 -6.11827 106.64568 40 ft 106 kts 68°
2026-05-05 12:55 -6.11490 106.65415 39 ft 152 kts 68°
2026-05-05 12:56 -6.11052 106.66477 395 ft 162 kts 68°
2026-05-05 12:56 -6.10608 106.67450 1167 ft 149 kts 61°
2026-05-05 12:56 -6.09816 106.68197 1493 ft 169 kts 35°
2026-05-05 12:56 -6.08758 106.68878 1743 ft 192 kts 33°
2026-05-05 12:57 -6.07415 106.69289 1981 ft 218 kts 359°
2026-05-05 12:57 -6.05945 106.68735 2264 ft 243 kts 324°
2026-05-05 12:57 -6.04601 106.67561 2667 ft 266 kts 318°
2026-05-05 12:57 -6.03250 106.66240 3404 ft 275 kts 316°
2026-05-05 12:58 -6.01886 106.64868 4258 ft 279 kts 316°
2026-05-05 12:58 -6.00505 106.63479 5104 ft 283 kts 316°
2026-05-05 12:58 -5.99117 106.62098 5924 ft 287 kts 316°
2026-05-05 12:58 -5.97676 106.60699 6710 ft 290 kts 320°
2026-05-05 12:59 -5.96126 106.59383 7480 ft 293 kts 322°
2026-05-05 12:59 -5.94529 106.58092 8253 ft 296 kts 323°
2026-05-05 12:59 -5.92904 106.56803 9022 ft 300 kts 323°
2026-05-05 13:00 -5.89583 106.54175 10280 ft 315 kts 323°
2026-05-05 13:00 -5.87804 106.52759 10452 ft 337 kts 323°
2026-05-05 13:01 -5.81998 106.48100 11797 ft 365 kts 322°
2026-05-05 13:01 -5.80013 106.46501 12410 ft 368 kts 322°
2026-05-05 13:01 -5.78006 106.44886 12999 ft 370 kts 322°
2026-05-05 13:01 -5.75987 106.43267 13593 ft 373 kts 323°
2026-05-05 13:02 -5.73948 106.41636 14113 ft 376 kts 323°
2026-05-05 13:02 -5.71889 106.39991 14632 ft 379 kts 323°
2026-05-05 13:02 -5.69819 106.38333 15139 ft 382 kts 323°
2026-05-05 13:02 -5.67732 106.36657 15648 ft 385 kts 322°
2026-05-05 13:03 -5.65634 106.34971 16141 ft 388 kts 322°
2026-05-05 13:03 -5.63515 106.33270 16620 ft 391 kts 322°
2026-05-05 13:03 -5.61380 106.31556 17112 ft 394 kts 322°
2026-05-05 13:03 -5.59230 106.29831 17598 ft 397 kts 322°
2026-05-05 13:04 -5.57061 106.28093 18088 ft 400 kts 322°
2026-05-05 13:04 -5.54876 106.26342 18498 ft 403 kts 322°
2026-05-05 13:04 -5.52679 106.24582 18915 ft 406 kts 323°
2026-05-05 13:04 -5.50462 106.22810 19329 ft 409 kts 323°
2026-05-05 13:05 -5.48232 106.21026 19734 ft 411 kts 323°
2026-05-05 13:05 -5.45987 106.19229 20141 ft 414 kts 323°
2026-05-05 13:05 -5.43731 106.17420 20556 ft 417 kts 322°
2026-05-05 13:05 -5.41461 106.15598 20970 ft 419 kts 323°
2026-05-05 13:06 -5.39176 106.13766 21373 ft 422 kts 323°
2026-05-05 13:06 -5.36876 106.11927 21750 ft 424 kts 323°
2026-05-05 13:06 -5.34563 106.10076 22127 ft 427 kts 323°
2026-05-05 13:06 -5.32264 106.08239 22488 ft 429 kts 323°
2026-05-05 13:07 -5.29923 106.06369 22850 ft 432 kts 323°
2026-05-05 13:07 -5.27569 106.04487 23209 ft 434 kts 323°
2026-05-05 13:07 -5.25204 106.02592 23535 ft 436 kts 323°
2026-05-05 13:07 -5.22825 106.00687 23837 ft 438 kts 323°
2026-05-05 13:08 -5.20438 105.98775 24144 ft 440 kts 323°
2026-05-05 13:08 -5.18042 105.96853 24431 ft 442 kts 323°
2026-05-05 13:08 -5.15636 105.94923 24736 ft 444 kts 323°
2026-05-05 13:08 -5.13214 105.92999 25030 ft 445 kts 325°
2026-05-05 13:09 -5.10597 105.91347 25318 ft 445 kts 332°
2026-05-05 13:09 -5.07891 105.89816 25601 ft 447 kts 332°
2026-05-05 13:09 -5.05179 105.88277 25892 ft 449 kts 332°
2026-05-05 13:09 -5.02454 105.86727 26184 ft 451 kts 332°
2026-05-05 13:10 -4.99723 105.85170 26472 ft 452 kts 332°
2026-05-05 13:10 -4.96984 105.83605 26763 ft 454 kts 332°
2026-05-05 13:10 -4.94232 105.82035 27042 ft 456 kts 332°
2026-05-05 13:10 -4.91472 105.80461 27319 ft 458 kts 332°
2026-05-05 13:11 -4.88697 105.78883 27600 ft 459 kts 332°
2026-05-05 13:11 -4.85912 105.77297 27887 ft 461 kts 332°
2026-05-05 13:11 -4.83118 105.75707 28172 ft 463 kts 332°
2026-05-05 13:11 -4.80308 105.74106 28462 ft 465 kts 332°
2026-05-05 13:12 -4.77493 105.72502 28752 ft 467 kts 332°
2026-05-05 13:12 -4.74665 105.70896 29034 ft 468 kts 332°
2026-05-05 13:12 -4.71823 105.69281 29327 ft 470 kts 332°
2026-05-05 13:12 -4.68987 105.67666 29740 ft 468 kts 332°
2026-05-05 13:13 -4.66158 105.66052 30161 ft 467 kts 332°
2026-05-05 13:13 -4.63339 105.64443 30532 ft 465 kts 332°
2026-05-05 13:13 -4.60530 105.62841 30908 ft 464 kts 332°
2026-05-05 13:13 -4.57728 105.61245 31284 ft 463 kts 332°
2026-05-05 13:14 -4.54932 105.59655 31667 ft 461 kts 332°
2026-05-05 13:14 -4.52143 105.58069 32051 ft 460 kts 332°
2026-05-05 13:14 -4.49362 105.56486 32437 ft 459 kts 332°
2026-05-05 13:14 -4.46593 105.54911 32840 ft 458 kts 332°
2026-05-05 13:15 -4.43829 105.53341 33232 ft 456 kts 332°
2026-05-05 13:15 -4.41065 105.51771 33631 ft 455 kts 332°
2026-05-05 13:15 -4.38313 105.50208 33991 ft 454 kts 332°
2026-05-05 13:15 -4.35566 105.48647 34302 ft 454 kts 332°
2026-05-05 13:16 -4.32861 105.47107 34612 ft 453 kts 332°
2026-05-05 13:16 -4.30124 105.45548 34928 ft 452 kts 332°
2026-05-05 13:16 -4.27393 105.43993 35227 ft 452 kts 332°
2026-05-05 13:16 -4.24662 105.42441 35525 ft 451 kts 331°
2026-05-05 13:17 -4.21931 105.40893 35800 ft 451 kts 331°
2026-05-05 13:17 -4.19198 105.39346 35882 ft 452 kts 331°
2026-05-05 13:17 -4.13682 105.36224 35891 ft 457 kts 331°
2026-05-05 13:18 -4.08146 105.33079 35892 ft 458 kts 331°
2026-05-05 13:18 -4.02611 105.29925 35892 ft 458 kts 331°
2026-05-05 13:19 -3.97071 105.26776 35894 ft 458 kts 331°
2026-05-05 13:19 -3.91521 105.23624 35898 ft 459 kts 331°
2026-05-05 13:20 -3.85960 105.20483 35899 ft 459 kts 332°
2026-05-05 13:20 -3.80389 105.17351 35900 ft 459 kts 332°
2026-05-05 13:21 -3.74816 105.14220 35902 ft 460 kts 332°
2026-05-05 13:21 -3.69236 105.11082 35902 ft 460 kts 332°
2026-05-05 13:22 -3.63648 105.07932 35908 ft 461 kts 332°
2026-05-05 13:22 -3.58057 105.04785 35911 ft 461 kts 332°
2026-05-05 13:23 -3.52456 105.01643 35911 ft 461 kts 332°
2026-05-05 13:23 -3.46859 104.98498 35912 ft 461 kts 332°
2026-05-05 13:24 -3.41269 104.95348 35914 ft 461 kts 332°
2026-05-05 13:24 -3.35713 104.92224 35914 ft 461 kts 332°
2026-05-05 13:25 -3.30124 104.89081 35914 ft 460 kts 332°
2026-05-05 13:25 -3.24541 104.85936 35912 ft 460 kts 332°
2026-05-05 13:26 -3.18964 104.82804 35911 ft 460 kts 332°
2026-05-05 13:26 -3.13387 104.79671 35908 ft 459 kts 332°
2026-05-05 13:27 -3.07813 104.76541 35903 ft 460 kts 332°
2026-05-05 13:27 -3.02237 104.73401 35897 ft 460 kts 332°
2026-05-05 13:28 -2.97567 104.70772 35898 ft 460 kts 332°
2026-05-05 13:28 -2.91976 104.67636 35900 ft 461 kts 332°
2026-05-05 13:29 -2.86000 104.65463 35896 ft 457 kts 351°
2026-05-05 13:29 -2.79670 104.65039 35894 ft 456 kts 359°
2026-05-05 13:30 -2.73319 104.64850 35894 ft 457 kts 359°
2026-05-05 13:30 -2.66959 104.64647 35895 ft 458 kts 359°
2026-05-05 13:31 -2.60596 104.64284 35896 ft 458 kts 355°
2026-05-05 13:31 -2.54300 104.63555 35901 ft 459 kts 353°
2026-05-05 13:32 -2.47954 104.62749 35902 ft 460 kts 354°
2026-05-05 13:32 -2.41597 104.62031 35904 ft 460 kts 355°
2026-05-05 13:33 -2.35234 104.61369 35906 ft 460 kts 355°
2026-05-05 13:33 -2.28863 104.60705 35911 ft 460 kts 355°
2026-05-05 13:34 -2.22493 104.60018 35911 ft 460 kts 354°
2026-05-05 13:34 -2.16124 104.59329 35913 ft 460 kts 354°
2026-05-05 13:35 -2.09752 104.58642 35912 ft 460 kts 354°
2026-05-05 13:35 -2.03382 104.57960 35913 ft 460 kts 354°
2026-05-05 13:36 -1.97012 104.57275 35914 ft 460 kts 354°
2026-05-05 13:36 -1.90639 104.56587 35913 ft 461 kts 354°
2026-05-05 13:37 -1.84268 104.55902 35915 ft 461 kts 354°
2026-05-05 13:37 -1.77936 104.55227 35913 ft 461 kts 354°
2026-05-05 13:38 -1.71564 104.54538 35917 ft 461 kts 354°
2026-05-05 13:38 -1.65192 104.53856 35916 ft 461 kts 355°
2026-05-05 13:39 -1.58817 104.53179 35918 ft 460 kts 355°
2026-05-05 13:39 -1.52448 104.52497 35916 ft 460 kts 354°
2026-05-05 13:40 -1.46076 104.51811 35915 ft 460 kts 355°
2026-05-05 13:40 -1.39708 104.51127 35915 ft 460 kts 354°
2026-05-05 13:41 -1.33339 104.50438 35915 ft 460 kts 354°
2026-05-05 13:41 -1.26972 104.49752 35914 ft 460 kts 355°
2026-05-05 13:42 -1.20604 104.49072 35916 ft 460 kts 355°
2026-05-05 13:42 -1.14242 104.48385 35914 ft 460 kts 354°
2026-05-05 13:43 -1.07875 104.47696 35914 ft 460 kts 354°
2026-05-05 13:43 -1.01518 104.47013 35914 ft 460 kts 355°
2026-05-05 13:44 -0.95155 104.46325 35914 ft 460 kts 355°
2026-05-05 13:44 -0.88837 104.45651 35915 ft 460 kts 355°
2026-05-05 13:45 -0.82478 104.44971 35913 ft 460 kts 355°
2026-05-05 13:45 -0.76118 104.44285 35912 ft 460 kts 355°
2026-05-05 13:46 -0.69824 104.43169 35910 ft 461 kts 347°
2026-05-05 13:46 -0.63587 104.41653 35625 ft 461 kts 347°
2026-05-05 13:47 -0.60469 104.40888 35385 ft 461 kts 347°
2026-05-05 13:47 -0.57351 104.40125 35127 ft 462 kts 347°
2026-05-05 13:47 -0.54217 104.39358 34317 ft 468 kts 347°
2026-05-05 13:47 -0.51027 104.38577 33343 ft 475 kts 347°
2026-05-05 13:48 -0.47796 104.37784 32414 ft 480 kts 347°
2026-05-05 13:48 -0.44531 104.36981 31399 ft 487 kts 347°
2026-05-05 13:48 -0.41234 104.36170 30623 ft 488 kts 347°
2026-05-05 13:48 -0.37952 104.35361 30041 ft 484 kts 347°
2026-05-05 13:49 -0.34696 104.34564 29326 ft 481 kts 347°
2026-05-05 13:49 -0.31464 104.33773 28693 ft 476 kts 347°
2026-05-05 13:49 -0.28266 104.32990 28058 ft 471 kts 347°
2026-05-05 13:49 -0.25138 104.32223 27432 ft 467 kts 347°
2026-05-05 13:50 -0.22000 104.31459 26801 ft 462 kts 348°
2026-05-05 13:50 -0.18874 104.30768 26173 ft 458 kts 349°
2026-05-05 13:50 -0.15758 104.30155 25555 ft 454 kts 351°
2026-05-05 13:50 -0.12659 104.29592 24946 ft 451 kts 351°
2026-05-05 13:51 -0.09586 104.29050 24346 ft 447 kts 351°
2026-05-05 13:51 -0.06536 104.28503 23773 ft 444 kts 351°
2026-05-05 13:51 -0.03512 104.27941 23149 ft 440 kts 351°
2026-05-05 13:51 -0.00525 104.27367 22590 ft 434 kts 351°
2026-05-05 13:52 0.02884 104.26701 21977 ft 427 kts 350°
2026-05-05 13:52 0.05781 104.26130 21460 ft 421 kts 350°
2026-05-05 13:52 0.08645 104.25572 20949 ft 417 kts 350°
2026-05-05 13:52 0.11481 104.25025 20435 ft 413 kts 351°
2026-05-05 13:53 0.14297 104.24486 19909 ft 411 kts 351°
2026-05-05 13:53 0.17101 104.23951 19382 ft 409 kts 351°
2026-05-05 13:53 0.19890 104.23417 18838 ft 407 kts 350°
2026-05-05 13:53 0.22669 104.22884 18287 ft 406 kts 350°
2026-05-05 13:54 0.25437 104.22349 17668 ft 404 kts 350°
2026-05-05 13:54 0.28187 104.21816 17102 ft 401 kts 350°
2026-05-05 13:54 0.30911 104.21288 16532 ft 398 kts 350°
2026-05-05 13:54 0.32705 104.20941 16154 ft 396 kts 350°
2026-05-05 13:55 0.35400 104.20423 15585 ft 393 kts 350°
2026-05-05 13:55 0.38935 104.19746 14835 ft 389 kts 350°
2026-05-05 13:55 0.41582 104.19236 14269 ft 386 kts 350°
2026-05-05 13:55 0.44211 104.18727 13699 ft 384 kts 350°
2026-05-05 13:56 0.46820 104.18221 13090 ft 381 kts 350°
2026-05-05 13:56 0.48575 104.17883 12710 ft 378 kts 349°
2026-05-05 13:56 0.51146 104.17389 12145 ft 374 kts 349°
2026-05-05 13:56 0.53693 104.16900 11599 ft 371 kts 349°
2026-05-05 13:57 0.56189 104.16254 10869 ft 373 kts 338°
2026-05-05 13:57 0.58555 104.15265 10548 ft 363 kts 338°
2026-05-05 13:57 0.60839 104.14331 10434 ft 348 kts 338°
2026-05-05 13:57 0.63038 104.13445 10318 ft 335 kts 338°
2026-05-05 13:58 0.65159 104.12592 10203 ft 323 kts 338°
2026-05-05 13:58 0.67209 104.11767 10081 ft 312 kts 338°
2026-05-05 13:58 0.69189 104.10966 9762 ft 304 kts 338°
2026-05-05 13:58 0.71141 104.10172 9295 ft 302 kts 338°
2026-05-05 13:59 0.74967 104.08612 8260 ft 296 kts 338°
2026-05-05 13:59 0.76867 104.07840 7727 ft 294 kts 338°
2026-05-05 14:00 0.80619 104.06317 6702 ft 288 kts 338°
2026-05-05 14:00 0.82470 104.05563 6187 ft 286 kts 337°
2026-05-05 14:00 0.84304 104.04814 5679 ft 283 kts 338°
2026-05-05 14:00 0.86119 104.04076 5150 ft 281 kts 337°
2026-05-05 14:01 0.87916 104.03346 4660 ft 278 kts 337°
2026-05-05 14:01 0.89697 104.02621 4174 ft 274 kts 337°
2026-05-05 14:01 0.91444 104.01913 3846 ft 265 kts 337°
2026-05-05 14:01 0.93087 104.01245 3789 ft 245 kts 337°
2026-05-05 14:02 0.94608 104.00628 3698 ft 227 kts 337°
2026-05-05 14:02 0.96040 104.00093 3506 ft 217 kts 346°
2026-05-05 14:02 0.97540 104.00002 3258 ft 216 kts
2026-05-05 14:02 0.98957 104.00444 3027 ft 213 kts 28°
2026-05-05 14:03 1.00134 104.01323 2780 ft 211 kts 42°
2026-05-05 14:03 1.01217 104.02281 2528 ft 204 kts 42°
2026-05-05 14:03 1.02266 104.03207 2251 ft 198 kts 42°
2026-05-05 14:03 1.03267 104.04090 2007 ft 183 kts 42°
2026-05-05 14:04 1.04177 104.04893 1771 ft 167 kts 42°
2026-05-05 14:04 1.05007 104.05625 1559 ft 156 kts 42°
2026-05-05 14:04 1.05807 104.06331 1363 ft 151 kts 42°
2026-05-05 14:04 1.06591 104.07023 1180 ft 150 kts 42°
2026-05-05 14:05 1.07369 104.07709 987 ft 149 kts 42°
2026-05-05 14:05 1.08143 104.08391 809 ft 148 kts 41°
2026-05-05 14:05 1.08914 104.09072 633 ft 148 kts 41°
2026-05-05 14:05 1.09680 104.09754 424 ft 147 kts 41°
2026-05-05 14:06 1.10443 104.10430 259 ft 146 kts 40°
2026-05-05 14:06 1.11199 104.11090 141 ft 137 kts 40°
2026-05-05 14:06 1.11807 104.11624 134 ft 92 kts 41°
2026-05-05 14:06 1.12166 104.11940 138 ft 53 kts 41°
2026-05-05 14:07 1.12397 104.12137 137 ft 38 kts 38°
2026-05-05 14:07 1.12546 104.12216 137 ft 12 kts 17°
2026-05-05 14:07 1.12627 104.12234 136 ft 13 kts 12°
2026-05-05 14:07 1.12706 104.12237 136 ft 9 kts 325°
2026-05-05 14:08 1.12689 104.12183 137 ft 10 kts 222°
2026-05-05 14:08 1.12634 104.12133 137 ft 11 kts 221°
2026-05-05 14:08 1.12580 104.12086 137 ft 6 kts 221°
2026-05-05 14:08 1.12542 104.12052 137 ft 9 kts 221°
2026-05-05 14:09 1.12490 104.12007 137 ft 11 kts 221°
2026-05-05 14:09 1.12438 104.11961 137 ft 9 kts 221°
2026-05-05 14:09 1.12387 104.11916 137 ft 11 kts 221°
2026-05-05 14:09 1.12350 104.11883 138 ft 7 kts 221°
2026-05-05 14:10 1.12328 104.11838 138 ft 8 kts 278°
2026-05-05 14:10 1.12354 104.11798 137 ft 5 kts 318°
2026-05-05 14:10 1.12387 104.11767 137 ft 8 kts 311°
2026-05-05 14:10 1.12407 104.11744 137 ft 1 kts 311°
2026-05-05 14:11 1.12415 104.11735 137 ft 2 kts 311°
2026-05-05 14:11 1.12420 104.11730 137 ft 0 kts 312°